Overview Statistics Trail Chart Weather Telemetry Raw packets
 

This is the latest recevied weather packets stored in our database for station/object KD4EG. If no packets are shown the sender has not sent any weather packets the latest 10 day(s).

<< 38 39 40 41 42 43 44 >>
Time Temp. Humidity Pressure Rain* Wind** Luminosity Snow
1788387557 35° C 50% 1019.9 hPa 0 mm - 120 W/m² -
1788387256 35° C 50% 1019.7 hPa 0 mm - 79 W/m² -
1788386951 35° C 49% 1019.7 hPa 0 mm - 72 W/m² -
1788386646 34.44° C 50% 1019.6 hPa 0 mm - 68 W/m² -
1788386341 34.44° C 49% 1019.5 hPa 0 mm - 76 W/m² -
1788386036 35° C 49% 1019.7 hPa 0 mm - 98 W/m² -
1788385733 35.56° C 48% 1019.8 hPa 0 mm - 95 W/m² -
1788385431 35.56° C 48% 1019.4 hPa 0 mm - 103 W/m² -
1788385126 35.56° C 48% 1019.7 hPa 0 mm - 246 W/m² -
1788384822 36.11° C 46% 1019.6 hPa 0 mm - 258 W/m² -
1788384520 35° C 47% 1019.5 hPa 0 mm - 262 W/m² -
1788384217 36.11° C 47% 1019.5 hPa 0 mm - 176 W/m² -
1788383913 36.67° C 45% 1019.7 hPa 0 mm - 305 W/m² -
1788383609 36.11° C 46% 1019.7 hPa 0 mm - 245 W/m² -
1788383304 36.67° C 44% 1019.6 hPa 0 mm - 114 W/m² -
1788383003 37.22° C 44% 1019.8 hPa 0 mm - 374 W/m² -
1788382701 36.67° C 45% 1019.5 hPa 0 mm - 386 W/m² -
1788382396 36.67° C 44% 1019.4 hPa 0 mm - 393 W/m² -
1788382092 36.67° C 46% 1019.8 hPa 0 mm - 414 W/m² -
1788381787 36.67° C 44% 1019.7 hPa 0 mm - 465 W/m² -
1788381482 36.11° C 45% 1019.7 hPa 0 mm - 483 W/m² -
1788381177 35.56° C 47% 1019.7 hPa 0 mm - 499 W/m² -
1788380871 36.11° C 46% 1019.7 hPa 0 mm - 242 W/m² -
1788380568 37.22° C 45% 1019.7 hPa 0 mm - 505 W/m² -
1788380264 36.67° C 45% 1019.8 hPa 0 mm - 506 W/m² -

* Rain latest hour (hover to see other rain measurements)
** Current wind speed in m/s (hover to see current wind gust speed)